TimeEDT,TemperatureF,Dew PointF,Humidity,Sea Level PressureIn,VisibilityMPH,Wind Direction,Wind SpeedMPH,Gust SpeedMPH,PrecipitationIn,Events,Conditions,WindDirDegrees,DateUTC
12:54 AM,35.1,28.0,76,30.61,10.0,NE,5.8,-,N/A,,Clear,50,2013-04-23 04:54:00
1:32 AM,37.4,30.2,75,30.59,10.0,NE,4.6,-,N/A,,Mostly Cloudy,40,2013-04-23 05:32:00
1:54 AM,37.9,30.0,73,30.59,10.0,NE,5.8,-,N/A,,Mostly Cloudy,50,2013-04-23 05:54:00
2:54 AM,39.9,30.9,70,30.56,10.0,NE,5.8,-,N/A,,Overcast,40,2013-04-23 06:54:00
3:54 AM,41.0,30.9,67,30.54,10.0,ENE,8.1,-,N/A,,Overcast,60,2013-04-23 07:54:00
4:54 AM,41.0,30.9,67,30.53,10.0,ENE,9.2,-,N/A,,Overcast,60,2013-04-23 08:54:00
5:54 AM,41.0,32.0,70,30.52,10.0,ENE,9.2,-,N/A,,Overcast,60,2013-04-23 09:54:00
6:54 AM,41.0,34.0,76,30.52,10.0,ENE,9.2,-,N/A,,Overcast,60,2013-04-23 10:54:00
7:12 AM,41.0,35.6,81,30.52,5.0,NE,6.9,-,N/A,,Haze,50,2013-04-23 11:12:00
7:31 AM,39.2,35.6,87,30.51,1.8,NE,6.9,-,N/A,,Overcast,40,2013-04-23 11:31:00
7:42 AM,39.2,37.4,93,30.51,2.0,NNE,10.4,-,N/A,,Overcast,30,2013-04-23 11:42:00
7:54 AM,37.9,35.1,89,30.52,2.0,North,5.8,-,N/A,,Overcast,10,2013-04-23 11:54:00
8:19 AM,39.2,35.6,87,30.51,1.5,NNE,8.1,-,0.00,Rain,Light Rain,20,2013-04-23 12:19:00
8:54 AM,39.0,37.0,93,30.51,1.5,North,6.9,-,0.00,,Overcast,360,2013-04-23 12:54:00
9:41 AM,39.2,37.4,93,30.49,2.5,NNE,9.2,-,0.01,Rain,Light Rain,20,2013-04-23 13:41:00
9:49 AM,39.2,37.4,93,30.49,3.0,NNE,6.9,-,0.01,,Overcast,20,2013-04-23 13:49:00
9:54 AM,39.9,37.9,93,30.49,3.0,NNE,8.1,-,0.01,,Overcast,20,2013-04-23 13:54:00
10:54 AM,42.1,37.9,85,30.48,4.0,NE,12.7,-,N/A,,Overcast,50,2013-04-23 14:54:00
11:34 AM,42.8,39.2,87,30.46,2.5,NE,13.8,-,N/A,,Overcast,50,2013-04-23 15:34:00
11:45 AM,42.8,37.4,81,30.46,3.0,NE,12.7,20.7,N/A,,Overcast,50,2013-04-23 15:45:00
11:54 AM,42.1,37.9,85,30.46,3.0,NE,10.4,18.4,N/A,,Overcast,50,2013-04-23 15:54:00
12:31 PM,42.8,37.4,81,30.44,2.5,NE,11.5,19.6,N/A,,Overcast,50,2013-04-23 16:31:00
12:54 PM,42.1,39.0,89,30.43,2.0,NE,13.8,-,N/A,,Overcast,50,2013-04-23 16:54:00
1:54 PM,43.0,39.0,86,30.40,3.0,NE,16.1,-,N/A,,Overcast,50,2013-04-23 17:54:00
2:32 PM,42.8,39.2,87,30.38,2.5,NE,13.8,-,N/A,,Overcast,40,2013-04-23 18:32:00
2:54 PM,42.1,39.0,89,30.38,2.5,NE,16.1,23.0,N/A,,Overcast,50,2013-04-23 18:54:00
3:23 PM,42.8,39.2,87,30.36,1.8,NNE,15.0,24.2,N/A,,Overcast,30,2013-04-23 19:23:00
3:37 PM,42.8,39.2,87,30.35,2.0,NE,17.3,24.2,0.00,Rain,Light Rain,40,2013-04-23 19:37:00
3:54 PM,42.1,39.0,89,30.35,2.5,NE,16.1,21.9,0.00,,Overcast,50,2013-04-23 19:54:00
4:02 PM,42.8,39.2,87,30.34,4.0,NE,16.1,24.2,N/A,,Overcast,50,2013-04-23 20:02:00
4:23 PM,42.8,39.2,87,30.34,2.5,NE,13.8,25.3,N/A,,Overcast,40,2013-04-23 20:23:00
4:31 PM,42.8,39.2,87,30.34,3.0,NE,18.4,24.2,N/A,,Overcast,50,2013-04-23 20:31:00
4:54 PM,42.1,39.0,89,30.34,4.0,NNE,17.3,23.0,N/A,,Overcast,30,2013-04-23 20:54:00
5:09 PM,42.8,39.2,87,30.33,2.0,NNE,18.4,24.2,0.00,Rain,Light Rain,30,2013-04-23 21:09:00
5:25 PM,42.8,39.2,87,30.33,3.0,NE,15.0,25.3,0.00,,Overcast,40,2013-04-23 21:25:00
5:54 PM,42.1,39.0,89,30.32,4.0,NE,15.0,-,0.00,,Overcast,40,2013-04-23 21:54:00
6:54 PM,42.1,39.0,89,30.29,4.0,NNE,13.8,24.2,N/A,,Overcast,30,2013-04-23 22:54:00
7:54 PM,42.1,39.0,89,30.27,3.0,NNE,13.8,-,N/A,,Overcast,30,2013-04-23 23:54:00
8:54 PM,42.1,39.0,89,30.25,3.0,NE,13.8,-,0.00,,Overcast,40,2013-04-24 00:54:00
9:54 PM,42.1,39.0,89,30.23,5.0,North,11.5,-,N/A,,Overcast,10,2013-04-24 01:54:00
10:36 PM,42.8,39.2,87,30.21,2.5,NNE,12.7,-,0.01,Rain,Light Rain,20,2013-04-24 02:36:00
10:54 PM,42.1,39.0,89,30.20,2.5,NNE,11.5,-,0.01,Rain,Light Rain,20,2013-04-24 02:54:00
11:03 PM,42.8,39.2,87,30.19,3.0,NNE,12.7,-,0.00,Rain,Light Rain,20,2013-04-24 03:03:00
11:14 PM,42.8,39.2,87,30.19,2.5,North,9.2,-,0.00,Rain,Light Rain,360,2013-04-24 03:14:00
11:54 PM,42.1,39.0,89,30.17,2.5,North,10.4,-,0.01,Rain,Light Rain,360,2013-04-24 03:54:00